TimeEST,TemperatureF,Dew PointF,Humidity,Sea Level PressureIn,VisibilityMPH,Wind Direction,Wind SpeedMPH,Gust SpeedMPH,PrecipitationIn,Events,Conditions,WindDirDegrees,DateUTC
12:54 AM,30.9,10.0,42,29.89,10.0,SW,15.0,-,N/A,,Partly Cloudy,230,2013-02-01 05:54:00
1:54 AM,30.0,10.9,45,29.88,10.0,SW,11.5,-,N/A,,Partly Cloudy,230,2013-02-01 06:54:00
2:54 AM,30.0,12.0,47,29.88,10.0,SW,11.5,-,N/A,,Partly Cloudy,230,2013-02-01 07:54:00
3:54 AM,30.9,12.9,47,29.87,10.0,SW,11.5,-,N/A,,Overcast,230,2013-02-01 08:54:00
4:54 AM,32.0,14.0,48,29.86,10.0,WSW,11.5,-,N/A,,Overcast,240,2013-02-01 09:54:00
5:54 AM,30.9,12.9,47,29.87,10.0,West,10.4,-,N/A,,Overcast,260,2013-02-01 10:54:00
6:54 AM,30.9,16.0,54,29.87,10.0,West,11.5,20.7,0.00,,Overcast,280,2013-02-01 11:54:00
7:50 AM,32.0,15.8,51,29.89,8.0,NW,11.5,-,0.00,Snow,Light Snow,310,2013-02-01 12:50:00
7:54 AM,30.9,15.1,52,29.90,7.0,NW,11.5,-,0.00,Snow,Light Snow,310,2013-02-01 12:54:00
8:07 AM,30.2,17.6,60,29.90,6.0,NNW,12.7,20.7,0.00,Snow,Light Snow,330,2013-02-01 13:07:00
8:21 AM,30.2,17.6,60,29.90,10.0,West,8.1,-,0.00,Snow,Light Snow,270,2013-02-01 13:21:00
8:54 AM,30.9,12.9,47,29.92,8.0,WNW,19.6,26.5,0.00,Snow,Light Snow,290,2013-02-01 13:54:00
9:48 AM,30.2,12.2,47,29.93,10.0,NW,18.4,-,0.00,,Overcast,310,2013-02-01 14:48:00
9:54 AM,28.9,18.0,64,29.94,2.0,NNW,25.3,29.9,0.00,Snow,Light Snow,330,2013-02-01 14:54:00
9:56 AM,28.4,19.4,69,29.94,1.5,NNW,23.0,29.9,0.00,Snow,Light Snow,330,2013-02-01 14:56:00
10:03 AM,26.6,19.4,74,29.95,2.5,NW,20.7,33.4,0.00,Snow,Light Snow,310,2013-02-01 15:03:00
10:05 AM,26.6,19.4,74,29.95,5.0,WNW,21.9,33.4,0.00,Snow,Light Snow,290,2013-02-01 15:05:00
10:07 AM,28.4,17.6,64,29.94,10.0,WNW,17.3,33.4,0.00,Snow,Light Snow,300,2013-02-01 15:07:00
10:54 AM,28.9,12.0,49,29.96,10.0,NW,18.4,28.8,0.00,,Mostly Cloudy,320,2013-02-01 15:54:00
11:54 AM,30.0,1.0,29,29.98,10.0,NW,24.2,33.4,N/A,,Mostly Cloudy,310,2013-02-01 16:54:00
12:54 PM,30.0,1.9,30,29.99,10.0,WNW,19.6,26.5,N/A,,Mostly Cloudy,300,2013-02-01 17:54:00
1:54 PM,30.9,1.9,29,30.02,10.0,NW,25.3,33.4,N/A,,Mostly Cloudy,310,2013-02-01 18:54:00
2:54 PM,30.9,1.0,28,30.05,10.0,NW,21.9,29.9,N/A,,Overcast,310,2013-02-01 19:54:00
3:54 PM,30.9,3.0,31,30.10,10.0,WNW,17.3,28.8,N/A,,Mostly Cloudy,300,2013-02-01 20:54:00
4:54 PM,28.9,1.0,30,30.13,10.0,West,21.9,28.8,N/A,,Scattered Clouds,280,2013-02-01 21:54:00
5:54 PM,28.0,1.9,33,30.17,10.0,West,16.1,23.0,N/A,,Partly Cloudy,280,2013-02-01 22:54:00
6:54 PM,27.0,1.0,33,30.21,10.0,WNW,20.7,29.9,N/A,,Partly Cloudy,290,2013-02-01 23:54:00
7:54 PM,26.1,1.9,35,30.24,10.0,WNW,16.1,23.0,N/A,,Clear,290,2013-02-02 00:54:00
8:54 PM,25.0,1.9,37,30.26,10.0,West,19.6,24.2,N/A,,Clear,280,2013-02-02 01:54:00
9:54 PM,25.0,3.9,41,30.28,10.0,WNW,12.7,21.9,N/A,,Clear,300,2013-02-02 02:54:00
10:54 PM,24.1,3.9,42,30.31,10.0,West,10.4,24.2,N/A,,Clear,280,2013-02-02 03:54:00
11:54 PM,23.0,3.9,44,30.32,10.0,West,15.0,20.7,N/A,,Clear,280,2013-02-02 04:54:00